[Iaude] MPEC V184: 2023 VG6 [a=1.44,e=0.36,i=6.0,H=27.2]
    mpec at marsden.cfa.harvard.edu 
    mpec at marsden.cfa.harvard.edu
       
    Fri Nov 10 16:38:05 EST 2023
    
    
  
M.P.E.C. 2023-V184                            Issued 2023 November 10, 21:36 UT
     The Minor Planet Electronic Circulars contain information on unusual
         minor planets, routine data on comets and natural satellites,
         and occasional editorial announcements.  They are published
    on behalf of Division F of the International Astronomical Union by the
          Minor Planet Center, Smithsonian Astrophysical Observatory,
                          Cambridge, MA 02138, U.S.A.
			  
             Prepared using the Tamkin Foundation Computer Network
                              MPC at CFA.HARVARD.EDU
            URL https://www.minorplanetcenter.net/    ISSN 1523-6714
                                    2023 VG6                                    
Observations:
     K23V06G* C2023 11 09.23274603 53 59.701+39 03 42.62         21.11GVEV184V00
     K23V06G  C2023 11 09.23825803 54 00.457+39 02 24.22         20.82GVEV184V00
     K23V06G  C2023 11 09.24926503 54 02.005+38 59 47.26         20.58GVEV184V00
     K23V06G KC2023 11 09.34035403 54 13.310+38 37 58.30         21.67GVEV184I52
     K23V06G KC2023 11 09.34376303 54 13.750+38 37 08.50         21.66GVEV184I52
     K23V06G KC2023 11 09.34717703 54 14.140+38 36 19.70         21.87GVEV184I52
     K23V06G KC2023 11 09.35060203 54 14.530+38 35 29.70               VEV184I52
     K23V06G KC2023 11 10.29080 03 57 10.87 +35 06 07.1          21.8 RVEV184291
     K23V06G KC2023 11 10.30571 03 57 12.00 +35 03 04.7          21.6 RVEV184291
     K23V06G 1C2023 11 10.86886 03 58 38.70 +33 10 58.1          21.9 VXEV184033
     K23V06G 1C2023 11 10.87030 03 58 38.84 +33 10 42.3          22.0 VXEV184033
     K23V06G 1C2023 11 10.87174 03 58 39.01 +33 10 26.5          22.3 VXEV184033
     K23V06G 1C2023 11 10.87319 03 58 39.13 +33 10 10.1          21.8 VXEV184033
Observer details:
033 Karl Schwarzschild Observatory, Tautenburg.  Observers S. Melnikov, C.
    Hogner, F. Ludwig, M. Hartmann, B. Stecklum.  Measurer B. Stecklum.
    1.34-m f/3 Schmidt + CCD.
291 LPL/Spacewatch II.  Observer T. H. Bressi.  1.8-m f/2.7 reflector + CCD.
I52 Steward Observatory, Mt. Lemmon Station.  Observer H. Groeller.  Measurers
    E. C. Beshore, D. Fay, J. B. Fazekas, D. C. Fuls, A. R. Gibbs, A. D.
    Grauer, H. Groeller, J. K. Hogan, R. A. Kowalski, S. M. Larson, G. J.
    Leonard, D. Rankin, R. L. Seaman, F. C. Shelly, K. W. Wierzchos.  1.0-m
    prime focus + CCD.
V00 Kitt Peak-Bok.  Observer K. W. Wierzchos.  Measurers M. J. Brucker, C. E.
    Woodward, D. Fay, J. B. Fazekas, D. C. Fuls, A. R. Gibbs, H. Groeller, J.
    K. Hogan, R. A. Kowalski, S. M. Larson, C. Lejoly, G. J. Leonard, R. A.
    Mastaler, R. S. McMillan, D. Rankin, R. L. Seaman, A. Serrano, F. C.
    Shelly, K. W. Wierzchos.  2.25-m reflector + 4x4K mosaic CCD.
Orbital elements:
2023 VG6                                                 Earth MOID = 0.0284 AU
Epoch 2023 Sept. 13.0 TT = JDT 2460200.5                MPC                     
M 352.36160              (2000.0)            P               Q                  
n   0.56821521     Peri.  119.86888     +0.99144013     +0.09958425             
a   1.4436463      Node   234.54171     -0.12263209     +0.93222711             
e   0.3597627      Incl.    5.95005     +0.04480902     +0.34790169             
P   1.73           H   27.24          G   0.15           U   8                  
Residuals in seconds of arc
231109 V00  0.2+  0.2-    231109 I52  0.1+  0.0     231110 033  0.2-  0.1+
231109 V00  0.2-  0.0     231109 I52  0.1-  0.5-    231110 033  0.2+  0.2+
231109 V00  0.0   0.2+    231110 291  0.8+  0.0     231110 033  0.1-  0.3-
231109 I52  0.0   0.1+    231110 291  0.5-  0.1-
231109 I52  0.4+  0.5-    231110 033  0.2-  0.0
Ephemeris:
2023 VG6                 a,e,i = 1.44, 0.36, 6                   q = 0.9243
Date    TT    R. A. (2000) Decl.     Delta      r    Elong.  Phase     V
2023 10 11    16 23 39.5 +14 11 40   0.1116  0.9373    54.0   120.5    27.2
...
2023 10 26    16 48 06.6 +39 38 22   0.04563 0.9759    65.0   112.6    24.8
...
2023 11 03    01 17 36.3 +78 54 35   0.02932 1.0051   115.3    63.2    21.8
...
2023 11 09    03 52 58.6 +40 01 50   0.04385 1.0301   153.3    25.6    21.7
2023 11 10    03 56 18.7 +36 07 32   0.04767 1.0345   156.9    22.1    21.8
2023 11 11    03 58 50.1 +32 47 51   0.05171 1.0390   159.8    19.2    21.9
...
2023 11 17    04 06 03.6 +20 27 48   0.07892 1.0668   170.6     8.7    22.5
...
2023 11 25    04 08 44.4 +13 23 53   0.1202  1.1065   172.5     6.7    23.4
...
2023 12 10    04 10 52.1 +09 03 14   0.2105  1.1860   161.1    15.6    25.1
A. U. Tomatic                (C) Copyright 2023 MPC           M.P.E.C. 2023-V184
    
    
More information about the Iaude
mailing list